This is the latest recevied weather packets stored in our database for station/object SV9TNF-1. If no packets are shown the sender has not sent any weather packets the latest 1 day(s).
| Time | Temp. | Humidity | Pressure | Rain* | Wind** | Luminosity | Snow |
|---|---|---|---|---|---|---|---|
| 1777985701 | 24.44° C | 34% | 1005.8 hPa | 0 mm | 7.15 m/s, 333° | - | - |
| 1777985401 | 24.44° C | 27% | 1005.8 hPa | 0 mm | 8.94 m/s, 307° | - | - |
| 1777985101 | 24.44° C | 27% | 1005.8 hPa | 0 mm | 12.96 m/s, 338° | - | - |
| 1777984802 | 25.56° C | 27% | 1005.8 hPa | 0 mm | 6.26 m/s, 329° | - | - |
| 1777984501 | 24.44° C | 24% | 1005.8 hPa | 0 mm | 18.78 m/s, 326° | - | - |
| 1777984201 | 25° C | 25% | 1005.8 hPa | 0 mm | 7.15 m/s, 27° | - | - |
| 1777983901 | 25° C | 25% | 1005.8 hPa | 0 mm | 5.81 m/s, 262° | - | - |
| 1777983601 | 25° C | 24% | 1005.8 hPa | 0 mm | 10.73 m/s, 333° | - | - |
| 1777983301 | 25.56° C | 25% | 1005.8 hPa | 0 mm | 4.02 m/s, 337° | - | - |
| 1777983001 | 25.56° C | 22% | 1005.8 hPa | 0 mm | 9.83 m/s, 257° | - | - |
| 1777982700 | 24.44° C | 21% | 1005.8 hPa | 0 mm | 12.07 m/s, 201° | - | - |
| 1777982400 | 25° C | 23% | 1005.8 hPa | 0 mm | 7.15 m/s, 263° | - | - |
| 1777982100 | 25° C | 24% | 1005.8 hPa | 0 mm | 12.52 m/s, 257° | - | - |
| 1777981801 | 25° C | 23% | 1005.8 hPa | 0 mm | 8.49 m/s, 307° | - | - |
| 1777981500 | 24.44° C | 23% | 1005.8 hPa | 0 mm | 10.28 m/s, 252° | - | - |
| 1777981383 | 24.44° C | 23% | 1005.8 hPa | 0 mm | 12.96 m/s, 256° | - | - |
| 1777981084 | 25.56° C | 25% | 1005.8 hPa | 0 mm | 8.05 m/s, 172° | - | - |
| 1777980783 | 25° C | 23% | 1005.8 hPa | 0 mm | 9.83 m/s, 266° | - | - |
| 1777980483 | 25° C | 23% | 1005.8 hPa | 0 mm | 8.49 m/s, 324° | - | - |
| 1777980183 | 25.56° C | 23% | 1005.8 hPa | 0 mm | 4.92 m/s, 320° | - | - |
| 1777979884 | 25.56° C | 23% | 1005.8 hPa | 0 mm | 8.05 m/s, 259° | - | - |
| 1777979583 | 25° C | 26% | 1005.8 hPa | 0 mm | 7.6 m/s, 327° | - | - |
| 1777979283 | 24.44° C | 26% | 1005.8 hPa | 0 mm | 9.39 m/s, 316° | - | - |
| 1777978983 | 24.44° C | 24% | 1005.8 hPa | 0 mm | 8.05 m/s, 253° | - | - |
| 1777978683 | 24.44° C | 25% | 1005.8 hPa | 0 mm | 5.81 m/s, 144° | - | - |
* Rain latest hour (hover to see other rain measurements)
** Current wind speed in m/s (hover to see current wind gust speed)